Date,TemperatureHighF,TemperatureAvgF,TemperatureLowF,DewpointHighF,DewpointAvgF,DewpointLowF,HumidityHigh,HumidityAvg,HumidityLow,PressureMaxIn,PressureMinIn,WindSpeedMaxMPH,WindSpeedAvgMPH,GustSpeedMaxMPH,PrecipitationSumIn
2013-3-1,63.5,60.9,57.7,57.3,52.5,48.4,87,74,62,29.97,29.88,14,4,14,0.00
2013-3-2,64.0,57.1,51.9,49.0,43.8,36.8,75,62,45,30.01,29.93,28,6,28,0.00
2013-3-3,60.6,53.6,48.9,47.6,43.3,39.9,89,69,50,30.13,29.93,24,5,24,0.02
2013-3-4,67.7,53.9,43.0,47.5,38.8,33.3,82,59,33,30.19,30.09,19,4,19,0.00
2013-3-5,76.6,63.6,51.0,58.0,53.6,47.3,90,71,47,30.15,30.05,17,2,17,0.00
2013-3-6,77.3,64.5,51.3,64.9,52.4,30.6,93,68,29,30.08,29.92,27,6,27,0.02
2013-3-7,68.8,57.9,47.3,55.8,45.3,37.1,89,64,43,30.16,30.04,12,4,15,0.00
2013-3-8,73.9,62.6,52.6,54.9,51.0,42.6,92,69,34,30.18,30.07,14,3,14,0.01
2013-3-9,74.2,63.8,53.8,58.2,54.4,50.8,91,73,53,30.16,30.08,15,3,15,0.00
2013-3-10,75.2,68.5,62.1,61.3,57.2,54.1,83,68,52,30.13,30.04,17,4,17,0.00
2013-3-11,77.4,71.4,67.1,62.8,60.8,57.0,79,70,51,30.08,29.93,19,4,19,0.00
2013-3-12,83.3,73.6,66.9,68.8,65.4,61.6,87,76,57,29.98,29.88,21,4,21,0.00
2013-3-13,73.7,65.0,56.2,65.2,54.5,45.8,92,71,40,30.10,29.95,18,5,18,0.00
2013-3-14,69.9,60.5,53.3,54.8,47.2,39.3,89,64,35,30.18,30.06,19,6,19,0.00
2013-3-15,71.1,61.4,51.4,54.7,50.3,44.6,83,68,43,30.23,30.12,17,4,17,0.00
2013-3-16,76.2,65.3,54.7,60.5,54.4,52.3,93,70,46,30.17,30.06,16,2,16,0.00
2013-3-17,77.0,67.9,58.8,61.8,58.6,53.6,91,73,54,30.13,30.00,20,3,20,0.00
2013-3-18,81.2,71.3,64.3,69.4,65.0,60.0,94,81,65,30.05,29.93,24,4,24,0.14
2013-3-19,79.5,72.5,67.5,69.3,67.4,65.6,95,85,65,29.99,29.77,23,2,23,0.02
2013-3-20,86.5,73.4,65.0,71.7,64.5,59.2,95,76,47,29.95,29.77,23,2,23,0.01
2013-3-21,73.3,66.3,60.7,61.4,52.8,39.5,92,66,30,29.92,29.80,16,4,16,0.00
2013-3-22,75.9,68.3,57.3,68.8,60.7,54.1,92,78,59,29.98,29.87,19,3,19,0.01
2013-3-23,90.5,79.5,71.8,75.6,70.5,67.1,95,76,50,29.96,29.77,18,3,18,0.07
2013-3-24,91.2,79.8,72.7,74.3,71.7,67.7,95,78,53,29.86,29.66,33,5,33,0.01
2013-3-25,76.5,72.5,62.9,72.4,61.1,45.3,95,70,42,29.98,29.72,20,5,20,0.07
2013-3-26,65.1,59.4,51.2,47.0,41.1,34.5,67,52,34,30.19,29.96,23,9,23,0.00
2013-3-27,67.2,56.1,46.0,49.0,41.7,36.3,78,60,38,30.23,30.14,18,5,18,0.00
2013-3-28,71.5,60.4,49.6,52.0,46.3,39.3,84,62,36,30.25,30.13,15,4,15,0.00
2013-3-29,73.8,64.4,54.8,54.6,50.9,45.8,79,63,47,30.27,30.17,16,4,16,0.00
2013-3-30,74.8,66.6,57.9,57.3,53.8,48.6,89,65,43,30.24,30.13,15,2,16,0.00
2013-3-31,80.9,70.6,59.8,66.6,61.5,54.9,92,74,56,30.16,30.02,21,4,21,0.00